Regional Weather Roundup
Issued by NWS

Home | Current Version | Previous Version | Graphics & Text | Print | Product List | Glossary On
Versions: 1 2 3 4 5 6 7 8 9 10 11 12 13 14 15 16 17 18 19 20 21 22 23 24 25 26 27 28 29 30 31 32 33 34 35 36 37 38 39 40 41 42 43 44 45 46 47 48 49 50
274
ASUS43 KDMX 080706
RWRIA

WEATHER ROUNDUP FOR IOWA
NATIONAL WEATHER SERVICE DES MOINES IA
100 AM CST THU DEC 08 2016

NOTE: "FAIR" INDICATES FEW OR NO CLOUDS BELOW 12,000 FEET WITH NO
SIGNIFICANT WEATHER AND/OR OBSTRUCTIONS TO VISIBILITY.

* - THESE STATIONS ARE NOT NWS STATIONS...THUS NOT UNDER NWS
QUALITY CONTROL.  THEY ALSO DO NOT REPORT WEATHER SUCH
AS PRECIPITATION OR FOG.

IAZ001>003-012>014-020>022-031>034-043>046-080800-
   NORTHWEST IOWA

CITY           SKY/WX    TMP DP  RH WIND       PRES   REMARKS
CARROLL *      PTCLDY    14   7  73 NW18G30   30.37R WCI  -3
CHEROKEE *     CLEAR     10   3  73 NW14G25   30.39R WCI  -6
DENISON *      CLOUDY    12   5  73 NW15G31   30.38S WCI  -4
LE MARS *      PTCLDY    10   3  72 NW21G28   30.43S WCI  -9
ORANGE CITY *  CLEAR      9   3  78 NW23G31   30.37R WCI -12
SHELDON *      PTCLDY     9   3  78 NW21G30   30.34R WCI -11
SIOUX CITY     FLURRIES  15   5  64 NW28G33   30.42F WCI  -5
SPENCER        CLEAR      9   3  77 W28G36    30.33R WCI -13
STORM LAKE *   PTCLDY     9   3  78 NW26G35   30.34R WCI -13
$$

IAZ055>058-069>071-079>083-090>094-080800-
   SOUTHWEST IOWA

CITY           SKY/WX    TMP DP  RH WIND       PRES   REMARKS
ATLANTIC *     PTCLDY    14   7  73 NW15G25   30.42R WCI  -1
AUDUBON *      PTCLDY    14   7  73 NW10G22   30.38S WCI   1
CLARINDA *     CLEAR     16   9  73 NW10      30.47F WCI   3
COUNCIL BLFS * MOCLDY    14   5  67 NW17G24   30.45R WCI  -3
CRESTON *      CLEAR     14   7  73 W18       30.39S WCI  -3
HARLAN  *      CLOUDY    14   7  73 NW18G28   30.44S WCI  -3
LAMONI         CLEAR     16   7  67 NW23      30.38S WCI  -2
RED OAK *      CLEAR     16   7  67 W14G20    30.46R WCI   1
SHENANDOAH *   CLEAR     16   9  73 NW9       30.48S WCI   4
$$

IAZ047>049-059>061-072>074-084-080800-
   CENTRAL IOWA

CITY           SKY/WX    TMP DP  RH WIND       PRES   REMARKS
AMES           MOCLDY    15   8  73 NW22G28   30.34S WCI  -3
ANKENY *       FLURRIES  18   7  62 W18G29    30.37S WCI   2
BOONE *        CLOUDY    14   7  73 W14G22    30.32S WCI  -1
CHARITON *     CLEAR     16   9  73 NW20G26   30.35S WCI  -1
DES MOINES     FLURRIES  18   8  65 NW18      30.36S WCI   2
GRINNELL*      MOCLDY    16  10  74 W21G29    30.31S WCI  -1
KNOXVILLE *    CLOUDY    18   7  62 NW17G25   30.34S WCI   2
MARSHALLTOWN   PTCLDY    15   7  70 NW21G33   30.31R WCI  -2
NEWTON *       CLOUDY    16   9  73 NW22      30.32S WCI  -2
PELLA *        PTCLDY    17   9  70 NW16G23   30.36R WCI   2
PERRY *        CLOUDY    16  10  75 NW20G31   30.37R WCI  -1
$$

IAZ004>006-015-016-023>025-035-036-080800-
   NORTH CENTRAL IOWA

CITY           SKY/WX    TMP DP  RH WIND       PRES   REMARKS
ALGONA *       CLEAR     10   5  79 W20G29    30.29R WCI  -8
CLARION *      CLOUDY    12   5  73 W20G30    30.30R WCI  -6
ESTHERVILLE    CLEAR      9   3  77 W24G36    30.28S WCI -12
FORT DODGE *   CLEAR     12   1  62 NW17G29   30.33S WCI  -5
MASON CITY     CLEAR     11   3  70 W21       30.26S WCI  -8
FOREST CITY *    N/A     10   5  79 W17G23    30.24S WCI  -7
WEBSTER CITY * MOCLDY    12   7  79 W21G29    30.30R WCI  -6
IOWA FALLS *     N/A     14   7  74 W21G32    30.30R WCI  -4
$$

IAZ007>011-017>019-026>030-037>042-050>054-066-080800-
   NORTHEAST IOWA

CITY           SKY/WX    TMP DP  RH WIND       PRES   REMARKS
CEDAR RAPIDS   FLURRIES  17  12  80 W25G32    30.26S WCI  -1
CHARLES CITY * PTCLDY    12   5  73 W20G25    30.23S WCI  -6
CLINTON *      FLURRIES  20  14  77 W25G31    30.22S WCI   2
DECORAH *      CLOUDY    12   5  73 VRB7G21   30.17S WCI   2
DUBUQUE        CLOUDY    18  11  74 W20       30.19R WCI   2
MONTICELLO *   CLOUDY    18   9  68 W16G29    30.23R WCI   3
OELWEIN *      MOCLDY    14   7  73 W22G29    30.23S WCI  -4
WATERLOO       MOCLDY    14   5  67 NW13G30   30.26S WCI   0
$$

IAZ064-065-067-068-078-080800-
   EAST CENTRAL IOWA

CITY           SKY/WX    TMP DP  RH WIND       PRES   REMARKS
DAVENPORT      CLOUDY    19  11  70 W26G36    30.25S WCI   1
IOWA CITY      FLURRIES  20  11  68 W17       30.30F WCI   5
MUSCATINE *    CLOUDY    19  10  68 W23       30.31S WCI   2
QUAD CITIES    CLOUDY    21  11  65 W16       30.26R WCI   7
$$

IAZ062-063-075>077-085>089-095>099-080800-
   SOUTHEAST IOWA

CITY           SKY/WX    TMP DP  RH WIND       PRES   REMARKS
BURLINGTON     CLEAR     19  11  70 W10       30.32R WCI   7
FAIRFIELD *    CLEAR     18   9  68 W15G25    30.32S WCI   3
FORT MADISON * CLEAR     19  10  68 W13       30.33R WCI   7
KEOKUK *       CLEAR     21  12  68 W12       30.34S WCI   9
OSKALOOSA *      N/A     17  10  73 NW26G33   30.33S WCI  -2
CENTERVILLE *    N/A     16   9  73 W13G21    30.37R WCI   2
OTTUMWA        PTCLDY    18   7  62 W16       30.33R WCI   3
WASHINGTON *   MOCLDY    18  10  73 W15G24    30.32R WCI   3
$$

ABBREVIATIONS USED IN REMARKS
   TC - TEMPERATURES IN CELSIUS
  WCI - WIND CHILL INDEX
   HX - HEAT INDEX
  VSB - VISIBILITY
$$





USA.gov is the U.S. government's official web portal to all federal, state and local government web resources and services.